Regional Weather Roundup
Issued by NWS

Home | Current Version | Previous Version | Graphics & Text | Print | Product List | Glossary On
Versions: 1 2 3 4 5 6 7 8 9 10 11 12 13 14 15 16 17 18 19 20 21 22 23 24 25 26 27 28 29 30 31 32 33 34 35 36 37 38 39 40 41 42 43 44 45 46 47 48 49 50
000
ASUS43 KMPX 120610
RWRMN
WEATHER ROUNDUP FOR MINNESOTA
NATIONAL WEATHER SERVICE TWIN CITIES/CHANHASSEN MN
100 AM CDT SAT JUL 12 2014


NOTE: "FAIR" INDICATES FEW OR NO CLOUDS BELOW 12,000 FEET WITH NO
SIGNIFICANT WEATHER AND/OR OBSTRUCTIONS TO VISIBILITY. N/A MEANS
CURRENT SKY AND/OR WEATHER CONDITIONS ARE NOT AVAILABLE.

MNZ060>063-068>070-120700-
   Twin Cities Metro

CITY           SKY/WX    TMP DP  RH WIND       PRES   REMARKS
TWIN CITIES    MOCLDY    74  69  85 S3        30.00F
6HR MIN TEMP:  74; 6HR MAX TEMP:  81;

ST PAUL        CLEAR     71  68  90 SE3       30.00F
CRYSTAL        PTCLDY    73  69  87 S3        29.98F
BLAINE         PTCLDY    72  72 100 S3        30.00S
LAKEVILLE      PTCLDY    70  66  88 S3        30.01F
EDEN PRAIRIE   PTCLDY    73  69  87 S6        29.99F
6HR MIN TEMP:  72; 6HR MAX TEMP:  80;

SOUTH ST PAUL  PTCLDY    71  68  90 SE3       30.00F
LAKE ELMO      FAIR      70  68  94 S3        30.02S
$$
MNZ001>005-007-008-013>017-022>024-027-028-120700-
   Northwest Minnesota

CITY           SKY/WX    TMP DP  RH WIND       PRES   REMARKS
BEMIDJI        PTCLDY    59  53  79 NW7       30.02S
HALLOCK        CLEAR     61  55  82 CALM      30.02S
ROSEAU         PTCLDY    63  57  82 W5        30.01S
WARROAD        PTCLDY    63  57  82 W3        30.01S
THIEF RVR FALL CLEAR     64  55  72 NW8       30.03S
CROOKSTON      CLEAR     61  55  82 N3        30.04S
FOSSTON        PTCLDY    61  54  77 CALM      30.04S
DETROIT LAKES  MOCLDY    66  59  77 N6        30.05S
MOORHEAD       MOCLDY    66  63  88 N6        30.04R
PARK RAPIDS    PTCLDY    65  58  78 N7        30.03R
$$
MNZ006-009>011-018-025>026-120700-
   North Central Minnesota

CITY           SKY/WX    TMP DP  RH WIND       PRES   REMARKS
BAUDETTE       CLEAR     62  55  77 CALM      30.01R
FLAG ISLAND      N/A     66  55  68 W7        29.98S HAZE
INTL FALLS     CLEAR     54  53  97 CALM      29.98R
6HR MIN TEMP:  54; 6HR MAX TEMP:  79;

WASKISH        CLEAR     68  57  68 NW7       30.01R
BIG FORK       CLEAR     59  55  88 W1        30.01R
LONGVILLE      CLEAR     61  59  94 NW3       30.01S
GRAND RAPIDS   CLEAR     63  55  77 N5        30.01S
CRANE LAKE     CLEAR     55  55 100 CALM      29.98S
ORR            CLEAR     59  55  88 CALM      29.97R
COOK           CLEAR     61  55  82 CALM      29.99R
$$
MNZ012-019>021-037-120700-
   Northeast Minnesota

CITY           SKY/WX    TMP DP  RH WIND       PRES   REMARKS
DULUTH         PTCLDY    68  66  93 W7        29.99F FOG
6HR MIN TEMP:  65; 6HR MAX TEMP:  74; 6HR PCP:  0.29;

ELY            CLEAR     61  57  88 SW3       29.98R
HIBBING        CLEAR     55  53  93 CALM      29.99S FOG
EVELETH        FOG       57  55  94 CALM      30.00S VSB 1/4
DULUTH HARBOR  PTCLDY    68  66  94 SW8       29.97F
TWO HARBORS    CLEAR     64  61  88 W5        29.96S HAZE
SILVER BAY     CLEAR     63  63 100 CALM      29.95S
GRAND MARAIS     N/A     55  54  96 CALM      29.93F
G MARAIS ARPRT FOG       64  63  94 SW3       29.99S VSB 3/4
$$
MNZ029>031-032-039>041-046>048-054>057-064-120700-
   West Central Minnesota

CITY           SKY/WX    TMP DP  RH WIND       PRES   REMARKS
FERGUS FALLS   PTCLDY    70  54  56 N5        30.02S
WHEATON        MOCLDY    68  63  83 N3        30.04R
MORRIS         MOCLDY    72  70  94 N3        30.00S
ALEXANDRIA     MOCLDY    72  66  81 N5        30.04S
ELBOW LAKE     FAIR      70  63  78 N7        30.02R
WADENA         PTCLDY    66  63  88 NW5       30.02F
GLENWOOD       MOCLDY    72  68  88 N3        30.03S
APPLETON       PTCLDY    73  68  83 N5        29.99S
BENSON         PTCLDY    73  72  94 E3        29.99F
ORTONVILLE     MOCLDY    73  66  78 N6        30.01R
MADISON        MOCLDY    77  72  83 CALM      29.99S
WILLMAR        FAIR      73  70  88 CALM      30.01F
$$
MNZ033>034-036-042>043-049>051-058-059-120700-
   Central Minnesota

CITY           SKY/WX    TMP DP  RH WIND       PRES   REMARKS
ST CLOUD       FOG       71  69  93 CALM      29.99S VSB 1/4
6HR MIN TEMP:  71; 6HR MAX TEMP:  82;

SAUK CENTRE    FAIR      69  67  93 CALM      30.02S
PAYNESVILLE    MOCLDY    70  69  98 CALM      30.01S FOG
AITKIN         HAZE      64  57  77 CALM      30.00S VSB<1/4
PINE RIVER     PTCLDY    63  63 100 CALM      30.04S FOG
BRAINERD       HAZE      69  63  81 CALM      30.01S VSB 3/4
STAPLES        PTCLDY    63  61  94 W3        30.02S
LONG PRAIRIE   FAIR      66  64  94 CALM      30.02F
LITTLE FALLS   FOG       66  64  94 CALM      30.01S VSB 1/2
LITCHFIELD     PTCLDY    73  73 100 CALM      30.01S FOG
BUFFALO        MOCLDY    73  69  89 CALM      30.01S
MAPLE LAKE       N/A     71  71  98 CALM      30.01S FOG
$$
MNZ037-044-045-052-053-120700-
   East Central Minnesota

CITY           SKY/WX    TMP DP  RH WIND       PRES   REMARKS
PRINCETON      MOCLDY    72  70  94 CALM      30.00S FOG
MORA           MOCLDY    70  68  94 CALM      30.02S
CAMBRIDGE      PTCLDY    73  64  73 CALM      29.98F HAZE
RUSH CITY      PTCLDY    69  66  90 CALM      30.01F
MOOSE LAKE     MOCLDY    61  59  94 CALM      29.99S
HINCKLEY       FAIR      64  64 100 CALM      30.00F
CLOQUET        FOG       66  64  94 SW3       30.00F VSB 1/4
MCGREGOR       CLOUDY    64  63  94 CALM      30.00F VSB 1/4
$$
MNZ071>073-080-081-089-090-097-098-120700-
   Southwest Minnesota

CITY           SKY/WX    TMP DP  RH WIND       PRES   REMARKS
MONTEVIDEO     PTCLDY    73  70  88 S3        29.99F
GRANITE FALLS  MOCLDY    73  70  89 CALM      30.00F
CANBY          MOCLDY    73  70  89 SW5       30.01S
MARSHALL       CLOUDY    73  70  88 W5        29.99F
REDWOOD FALLS  CLOUDY    74  71  91 SW3       29.99F
OLIVIA         MOCLDY    73  70  88 S3        30.00S
PIPESTONE      CLOUDY    73  70  88 CALM      30.02F FOG
WINDOM         MOCLDY    72  70  94 CALM      30.02F FOG
WORTHINGTON    MOCLDY    72  70  94 CALM      30.03F
JACKSON        PTCLDY    72  68  88 S5        30.03F
TRACY          CLOUDY    74  72  93 SW6       30.01S FOG
SLAYTON        CLOUDY    72  70  96 CALM      30.03F FOG
$$
MNZ065>067-074>077-082>085-091>093-120700-
   South Central Minnesota

CITY           SKY/WX    TMP DP  RH WIND       PRES   REMARKS
MANKATO        PTCLDY    72  66  83 S7        30.01F
NEW ULM        MOCLDY    72  72 100 CALM      30.00F
ST JAMES       MOCLDY    72  70  94 CALM      30.02S FOG
FAIRMONT       PTCLDY    70  64  83 S6        30.02F
GLENCOE        PTCLDY    71  68  90 CALM      30.00S FOG
FARIBAULT      PTCLDY    72  64  78 S5        30.02F
OWATONNA       MOCLDY    72  66  83 S7        30.03F
WASECA         MOCLDY    72  64  78 S7        30.04F
ALBERT LEA     PTCLDY    70  66  88 S5        30.04F FOG
$$
MNZ078>079-086>088-094>096-120700-
   Southeast Minnesota

CITY           SKY/WX    TMP DP  RH WIND       PRES   REMARKS
ROCHESTER      CLOUDY    68  66  93 S5        30.06S FOG
6HR MIN TEMP:  68; 6HR MAX TEMP:  75;

RED WING       CLOUDY    73  68  83 S3        30.01F
STANTON        CLEAR     70  66  87 S5        30.00F
DODGE CENTER   CLEAR     70  66  88 SW8       30.04F
WINONA         CLEAR     70  66  88 CALM      30.03F
AUSTIN         CLOUDY    70  66  88 S3        30.04F
PRESTON        CLEAR     67  66  95 S6        30.06S
$$
ABBREVIATIONS USED IN REMARKS
   TC - TEMPERATURES IN CELSIUS
  WCI - WIND CHILL INDEX
   HX - HEAT INDEX
  VSB - VISIBILITY
$$


USA.gov is the U.S. government's official web portal to all federal, state and local government web resources and services.